Regional Weather Roundup
Issued by NWS Cleveland, OH

Home | Current Version | Previous Version | Text Only | Print | Product List | Glossary Off
Versions: 1 2 3 4 5 6 7 8 9 10 11 12 13 14 15 16 17 18 19 20 21 22 23 24 25 26 27 28 29 30 31 32 33 34 35 36 37 38 39 40 41 42 43 44 45 46 47 48 49 50

000
ASUS41 KCLE 170412
RWRCLE
OHIO REGIONAL WEATHER ROUNDUP
NATIONAL WEATHER SERVICE WILMINGTON, OH
1100 PM EST MON JAN 16 2017

NOTE: "FAIR" INDICATES FEW OR NO CLOUDS BELOW 12,000 FEET WITH NO
SIGNIFICANT WEATHER AND/OR OBSTRUCTIONS TO VISIBILITY.

OHZ001>008-015>018-024>027-034-035-043-044-170500-
   NORTHWEST OHIO

CITY           SKY/WX    TMP DP  RH WIND       PRES   REMARKS
DEFIANCE       CLOUDY    37  34  89 E8        30.05F FOG
FINDLAY        CLOUDY    42  39  89 SE13      30.05F FOG
TOLEDO EXPRESS LGT RAIN  34  34 100 E7        30.08F FOG     WCI  28
TOLEDO EXEC    CLOUDY    35  35 100 NE6       30.10F FOG
LIMA           CLOUDY    45  45 100 SE13      30.04F FOG
$$

OHZ009>014-019>023-028>033-038-089-170500-
   NORTHEAST OHIO

CITY           SKY/WX    TMP DP  RH WIND       PRES   REMARKS
CLE-HOPKINS    CLOUDY    41  34  76 SE7       30.14F
CLE-LAKEFRONT  CLOUDY    41  34  76 S3        30.13F
CUY CO. ARPT   CLOUDY    41  34  75 SE8       30.14F
LORAIN-ELYRIA  RAIN      38  34  85 S6        30.12F FOG
ASHTABULA      CLOUDY    36  27  69 SE5       30.17F
AKRON-CANTON   CLOUDY    39  34  82 SE7       30.13F HAZE
WOOSTER        CLOUDY    36  34  92 S3        30.13F
MANSFIELD      LGT RAIN  41  40  96 S9        30.10F FOG
YOUNGSTOWN     CLOUDY    37  33  85 SE8       30.15F
$$

OHZ042-051>053-060>062-070>072-077>081-170500-
  SOUTHWEST OHIO

CITY           SKY/WX    TMP DP  RH WIND       PRES   REMARKS
CINC-COVINGTON CLOUDY    54  52  93 SE9       30.04F
CINC-LUNKEN    CLOUDY    47  47 100 CALM      30.06F FOG
HAMILTON       CLOUDY    51  51 100 E3        30.05F
DAYTON         FOG       48  47  96 SE8       30.06S VSB 1/4
WRIGHT-PAT AFB CLOUDY    49  49 100 CALM      30.06F
DAYTON GENERAL CLOUDY    51  49  92 SE9       30.04F
WILMINGTON     CLOUDY    48  47  96 SE9       30.07F FOG
$$

OHZ036-037-039>041-045>050-054>059-063>069-073>076-082>088-170500-
  CENTRAL AND SOUTHEAST OHIO

CITY           SKY/WX    TMP DP  RH WIND       PRES   REMARKS
COLUMBUS       LGT RAIN  46  46 100 E7        30.11F FOG
OSU AIRPORT    LGT RAIN  45  45 100 SE9       30.10F FOG
BOLTON FIELD   CLOUDY    45  45 100 SE7       30.10F
RICKENBACK AFB LGT RAIN  44  44 100 E5        30.10F
NEWARK         LGT RAIN  41  39  93 CALM      30.13F FOG
MARION         LGT RAIN  43  41  93 SE13      30.08F FOG
LANCASTER      CLOUDY    48  45  89 SE8       30.12F
ZANESVILLE     CLOUDY    42  40  92 CALM      30.15F FOG
NEW PHILLY     CLOUDY    40  36  86 SE7       30.15F
$$




USA.gov is the U.S. government's official web portal to all federal, state and local government web resources and services.